EW1994 Weather Reports


Display with metric or nautical units.
time (UTC)temp
F
wind
direction
speed
MPH
gust
MPH
rain 1hr
in
rain 24hr
in
rain mn
in
humidity
%
barometer
mb
20260508121523 44 57 0.0 0.0 0.00 0.00 0.00 92 1017.6
20260508120027 44 57 0.0 0.0 0.00 0.00 0.00 92 1017.6
20260508114512 44 57 0.0 0.0 0.00 0.00 0.00 92 1017.4
20260508113018 45 57 0.0 0.0 0.00 0.00 0.00 92 1017.4
20260508111522 45 57 0.0 0.0 0.00 0.00 0.00 92 1017.2
20260508110024 45 57 0.0 0.0 0.00 0.00 0.00 92 1017.2
20260508104538 45 57 0.0 0.0 0.00 0.00 0.00 92 1017.1
20260508103036 45 57 0.0 0.0 0.00 0.00 0.00 91 1016.9
20260508101527 45 57 0.0 0.0 0.00 0.00 0.00 92 1016.8
20260508100022 46 57 0.0 0.0 0.00 0.00 0.00 91 1016.8
20260508094525 46 57 0.0 0.0 0.00 0.00 0.00 91 1016.8
20260508093027 46 57 0.0 0.0 0.00 0.00 0.00 91 1016.7
20260508091529 46 57 0.0 0.0 0.00 0.00 0.00 91 1016.7
20260508090022 46 57 0.0 0.0 0.00 0.00 0.00 91 1016.8
20260508084522 46 57 0.0 0.0 0.00 0.00 0.00 91 1016.7
20260508083025 47 57 0.0 0.0 0.00 0.00 0.00 91 1016.9
20260508081527 47 57 0.0 0.0 0.00 0.00 0.00 91 1016.9
20260508080018 47 57 0.0 0.0 0.00 0.00 0.00 91 1017.0
20260508074519 47 57 0.0 0.0 0.00 0.00 0.00 91 1017.0
20260508073024 47 57 0.0 0.0 0.00 0.00 0.00 91 1017.0
20260508071508 47 57 0.0 0.0 0.00 0.00 0.00 90 1016.9
20260508070021 47 57 0.0 0.0 0.00 0.00 0.00 90 1017.1
20260508064519 47 57 0.0 0.0 0.00 0.00 0.00 90 1017.0
20260508063025 48 57 0.0 0.0 0.00 0.00 0.00 89 1017.0
20260508061508 48 57 0.0 0.0 0.00 0.00 0.00 89 1017.1
20260508060011 48 57 0.0 0.0 0.00 0.00 0.00 89 1017.1
20260508054515 49 57 0.0 0.0 0.00 0.00 0.00 89 1017.1
20260508053022 49 57 0.0 0.0 0.00 0.00 0.00 88 1017.2
20260508051526 50 57 0.0 0.0 0.00 0.00 0.00 88 1017.1
20260508050007 50 57 0.0 0.0 0.00 0.00 0.00 87 1017.1
20260508044513 51 57 0.0 0.0 0.00 0.00 0.00 87 1017.3
20260508043020 51 57 0.0 0.0 0.00 0.00 0.00 86 1017.4
20260508041525 52 57 0.0 0.0 0.00 0.00 0.00 86 1017.3
20260508040029 53 57 0.0 0.0 0.00 0.00 0.00 84 1017.2
20260508034513 54 57 0.0 0.0 0.00 0.00 0.00 84 1017.2
20260508033016 55 57 0.0 0.0 0.00 0.00 0.00 82 1017.2
20260508031522 56 57 0.0 0.0 0.00 0.00 0.00 81 1017.2
20260508030038 57 57 0.0 0.0 0.00 0.00 0.00 81 1017.2
20260508024532 58 57 0.0 0.0 0.00 0.00 0.00 80 1017.4
20260508023017 59 57 0.0 0.0 0.00 0.00 0.00 78 1017.5
20260508021518 59 57 0.0 0.0 0.00 0.00 0.00 74 1017.4
20260508020021 60 57 0.0 0.0 0.00 0.00 0.00 72 1017.4
20260508014525 60 57 0.0 0.0 0.00 0.00 0.00 73 1017.5
20260508013028 60 57 0.0 1.0 0.00 0.00 0.00 71 1017.6
20260508011512 60 57 0.0 1.0 0.00 0.00 0.00 70 1017.9
20260508010025 60 57 0.0 0.0 0.00 0.00 0.00 71 1018.1
20260508004527 60 57 0.0 1.0 0.00 0.00 0.00 70 1018.1
20260508003027 60 57 0.0 2.0 0.00 0.00 0.00 69 1018.2
20260508001528 60 98 0.0 1.0 0.00 0.00 0.00 69 1018.2
20260508000016 60 98 0.0 1.0 0.00 0.00 0.00 70 1018.1
20260507234529 60 98 0.0 2.0 0.00 0.00 0.00 70 1018.1
20260507233026 60 98 0.0 2.0 0.00 0.00 0.00 69 1018.2
20260507231529 60 113 0.0 2.0 0.00 0.00 0.00 71 1018.3
20260507230029 60 111 0.0 2.0 0.00 0.00 0.00 71 1018.6
20260507224520 60 100 0.0 1.0 0.00 0.00 0.00 72 1018.7
20260507223022 59 115 0.0 3.0 0.00 0.00 0.00 71 1018.8
20260507221527 59 26 0.0 1.0 0.00 0.00 0.00 73 1019.0
20260507220030 59 47 0.0 2.0 0.00 0.00 0.00 74 1019.3
20260507214530 59 41 0.0 2.0 0.00 0.00 0.00 76 1019.5
20260507213021 58 43 0.0 2.0 0.00 0.00 0.00 76 1019.8
20260507211524 57 53 0.0 2.0 0.00 0.00 0.00 76 1020.0
20260507210026 57 17 0.0 3.0 0.00 0.00 0.00 76 1020.1
20260507204526 57 25 0.0 3.0 0.00 0.00 0.00 77 1020.1
20260507203030 56 107 0.0 2.0 0.00 0.00 0.00 79 1020.3
20260507201523 55 157 0.0 3.0 0.00 0.00 0.00 80 1020.5
20260507200027 54 156 1.0 3.0 0.00 0.00 0.00 81 1020.6
20260507194532 54 162 0.0 4.0 0.00 0.00 0.00 82 1020.7
20260507193031 54 90 0.0 3.0 0.00 0.00 0.00 83 1020.8
20260507191518 54 59 0.0 2.0 0.00 0.00 0.00 84 1020.8
20260507190022 54 77 0.0 3.0 0.00 0.00 0.00 85 1020.9
20260507184525 53 88 0.0 1.0 0.00 0.00 0.00 86 1020.9
20260507183036 53 95 0.0 1.0 0.00 0.00 0.00 86 1021.1
20260507181526 53 140 0.0 0.0 0.00 0.00 0.00 85 1021.1
20260507180020 53 140 0.0 0.0 0.00 0.00 0.00 84 1021.1
20260507174532 53 140 0.0 1.0 0.00 0.00 0.00 82 1021.1
20260507173031 53 144 0.0 0.0 0.00 0.00 0.00 83 1021.1
20260507171530 52 144 0.0 0.0 0.00 0.00 0.00 83 1021.1
20260507170017 52 144 0.0 0.0 0.00 0.00 0.00 83 1021.1
20260507164524 52 144 0.0 2.0 0.00 0.00 0.00 82 1021.0
20260507163005 52 194 0.0 1.0 0.00 0.00 0.00 83 1021.0
20260507161512 52 175 0.0 5.0 0.00 0.00 0.00 83 1021.0
20260507160026 52 156 0.0 2.0 0.00 0.00 0.00 83 1021.1
20260507154519 51 155 0.0 3.0 0.00 0.00 0.00 84 1021.2
20260507153022 51 212 0.0 2.0 0.00 0.00 0.00 85 1021.2
20260507151510 51 238 0.0 2.0 0.00 0.00 0.00 85 1021.2
20260507150014 50 247 0.0 3.0 0.00 0.00 0.00 86 1021.2
20260507144518 50 255 1.0 3.0 0.00 0.00 0.00 87 1021.1
20260507143037 50 149 0.0 3.0 0.00 0.00 0.00 88 1021.2
20260507141535 49 128 0.0 0.0 0.00 0.00 0.00 90 1021.1
20260507140010 49 128 0.0 0.0 0.00 0.00 0.00 91 1021.1
20260507134517 49 128 0.0 0.0 0.00 0.00 0.00 91 1021.0
20260507133020 49 128 0.0 0.0 0.00 0.00 0.00 91 1020.9
20260507131523 48 128 0.0 0.0 0.00 0.00 0.00 91 1020.9
20260507130037 48 128 0.0 0.0 0.00 0.00 0.00 91 1020.8
20260507124512 48 128 0.0 0.0 0.00 0.00 0.00 91 1020.8
20260507123018 48 128 0.0 0.0 0.00 0.00 0.00 91 1020.9